Simultaneous Nadir Overpasses (SNOs) Predictions

Prediction of SNOs between AQUA and METOP-A Satellite Orbit:

Table of predicted SNOs for the next 14.0 days since TLE Epoch: 5/17/2019
Index Date (AQUA) Time (AQUA) Lat,Lon (AQUA) SZA (AQUA ) Date (METOP-A) Time (METOP-A) Lat,Lon (METOP-A) SZA (METOP-A ) Distance(km) Time Diff (sec)
1 05/19/2019 09:20:36 -75.16,-148.98 124.51 05/19/2019 09:20:19 -75.16,-148.92 124.51 1.62 17
2 05/19/2019 10:10:05 75.21, 18.51 55.55 05/19/2019 10:10:58 75.19, 18.50 55.52 2.81 53
3 05/22/2019 04:05:12 74.53, 111.44 54.23 05/22/2019 04:04:07 74.48, 108.30 54.34 93.38 65
4 05/22/2019 04:54:50 -75.18, -82.58 125.07 05/22/2019 04:54:35 -75.15, -82.55 125.09 2.91 15
5 05/22/2019 05:44:19 75.24, 84.90 54.99 05/22/2019 05:45:13 75.23, 85.00 54.97 3.21 54
6 05/24/2019 23:39:27 74.61, 177.68 53.79 05/24/2019 23:38:21 74.56, 174.91 53.88 82.04 66
7 05/25/2019 00:29:02 -75.15, -16.06 125.64 05/25/2019 00:28:50 -75.14, -16.19 125.64 4.02 12
8 05/25/2019 01:18:31 75.21, 151.40 54.44 05/25/2019 01:19:28 75.21, 151.36 54.43 1.10 57
9 05/27/2019 19:13:41 74.69,-116.09 53.39 05/27/2019 19:12:34 74.64,-118.48 53.46 70.60 67
10 05/27/2019 20:03:16 -75.17, 50.31 126.09 05/27/2019 20:03:05 -75.17, 50.29 126.09 1.07 11
11 05/27/2019 20:52:45 75.25,-142.26 53.99 05/27/2019 20:53:43 75.24,-142.16 53.97 2.89 58
12 05/30/2019 14:47:56 74.79, -49.88 53.06 05/30/2019 14:46:48 74.72, -51.89 53.09 59.18 68
13 05/30/2019 15:37:30 -75.21, 116.66 126.49 05/30/2019 15:37:20 -75.19, 116.76 126.51 3.39 10




NCC Satellite Simultaneous Nadir Overpasses (SNOs) Prediction Service
